Home > Time Zones > World Clock > Weather > Macau > Macau > Past weeks

Flag for Macau Weather past 2 weeks in Macau, Macau

Now
64 °F

Passing clouds.


Feels Like: 64 °F
Forecast: 59 / 67 °F
Wind: 15 mph from Southeast

Location: Taipa

Current Time: Jan 28, 2015 at 12:34:14 PM

Latest Report: Jan 28, 2015 at 12:00 PM


Visibility: N/A

Pressure: 30.09 "Hg

Humidity: 78%

Dew point: 57 °F

Location of MacauLocation

Historic Weather in Macau — Graph

°F

Macau temperature yesterday

Maximum temperature yesterday: 68 °F (at 11:00 AM)
Minimum temperature yesterday: 61 °F (at 4:30 AM)
Average temperature yesterday: 65 °F

Past Weeks' High & Low Weather Summary

 TemperatureHumidityPressure
High70 °F (Jan 26, 12:30 PM)100% (Jan 27, 7:30 AM)30.30 "Hg (Jan 27, 7:30 AM)
Low50 °F (Jan 15, 7:30 AM)43% (Jan 19, 2:00 PM)29.98 "Hg (Jan 27, 3:30 PM)
Average61 °F74%30.13 "Hg
* Reported Jan 13 11:00 AM — Jan 28 11:00 AM, Macau, Weather by CustomWeather, © 2014

Note: Actual official high and low records may vary slightly from our data, if they occured in-between our weather recording intervals... More about our weather records

Advertising

Macau weather history for previous 24 hours

 ConditionsComfort  
Time TempWeatherWind HumidityBarometerVisibility
11:00 AM
Jan 28
64 °FPassing clouds.17 mph78%30.09 "HgN/A
10:30 AM64 °FPassing clouds.18 mph78%30.09 "HgN/A
10:00 AM64 °FSunny.18 mph78%30.09 "Hg10 mi
9:30 AM63 °FPassing clouds.17 mph83%30.09 "HgN/A
9:00 AM63 °FSunny.17 mph83%30.09 "Hg10 mi
8:30 AM63 °FSunny.20 mph83%30.07 "Hg10 mi
8:00 AM63 °FPassing clouds.18 mph83%30.07 "HgN/A
7:30 AM63 °FSunny.20 mph83%30.07 "Hg10 mi
7:00 AM63 °FPassing clouds.18 mph83%30.04 "HgN/A
6:30 AM63 °FPassing clouds.18 mph83%30.04 "HgN/A
6:00 AM63 °FPassing clouds.20 mph83%30.04 "HgN/A
5:00 AM63 °FPassing clouds.15 mph83%30.04 "HgN/A
4:30 AM63 °FPassing clouds.17 mph88%30.04 "HgN/A
4:00 AM63 °FPassing clouds.15 mph88%30.04 "HgN/A
3:30 AM63 °FPassing clouds.14 mph88%30.04 "HgN/A
3:00 AM63 °FPassing clouds.14 mph88%30.04 "HgN/A
2:30 AM63 °FPassing clouds.13 mph88%30.04 "HgN/A
2:00 AM63 °FPassing clouds.13 mph88%30.04 "HgN/A
1:30 AM63 °FPassing clouds.12 mph88%30.04 "HgN/A
1:00 AM64 °FPassing clouds.13 mph83%30.04 "Hg5 mi
12:30 AM64 °FPassing clouds.15 mph83%30.04 "Hg5 mi
12:00 AM64 °FClear.15 mph83%30.04 "Hg5 mi
11:30 PM
Jan 27
64 °FClear.15 mph88%30.04 "Hg5 mi
11:00 PM64 °FClear.14 mph88%30.04 "Hg6 mi
10:30 PM64 °FClear.14 mph88%30.04 "Hg6 mi
10:00 PM64 °FClear.14 mph88%30.04 "Hg6 mi
9:30 PM64 °FClear.14 mph88%30.04 "Hg5 mi
9:00 PM64 °FClear.14 mph88%30.04 "Hg5 mi
8:30 PM64 °FClear.15 mph88%30.01 "Hg5 mi
8:00 PM64 °FClear.14 mph88%30.01 "Hg5 mi
7:30 PM64 °FClear.13 mph88%30.01 "Hg5 mi
7:00 PM64 °FClear.14 mph88%30.01 "Hg5 mi
6:30 PM64 °FClear.12 mph88%29.98 "Hg4 mi
6:00 PM64 °FClear.12 mph88%29.98 "Hg4 mi
5:30 PM64 °FClear.13 mph83%29.98 "Hg4 mi
5:00 PM66 °FClear.13 mph78%29.98 "Hg4 mi
4:30 PM66 °FClear.14 mph78%29.98 "Hg4 mi
4:00 PM66 °FClear.13 mph78%29.98 "Hg4 mi
3:30 PM66 °FScattered clouds.14 mph78%29.98 "Hg4 mi
3:00 PM66 °FPassing clouds.14 mph83%30.01 "Hg4 mi
2:30 PM68 °FPassing clouds.8 mph78%30.01 "Hg5 mi
2:00 PM68 °FPassing clouds.9 mph78%30.01 "Hg6 mi
1:30 PM68 °FScattered clouds.9 mph78%30.04 "Hg6 mi
1:00 PM68 °FPassing clouds.10 mph78%30.04 "Hg6 mi
12:30 PM68 °FPassing clouds.12 mph78%30.07 "Hg6 mi
12:00 PM68 °FPassing clouds.9 mph78%30.07 "Hg6 mi
Weather by CustomWeather, © 2014

See weather overviewHow to use our weather pages